Location: Newark
(44.3681°N, 100.3364°W)
Time: 04:57:13
(UTC+00:00)

Transit 2A - Visible Passes

Search period start: 27 February 2020 00:00
Search period end: 08 March 2020 00:00
Orbit: 599 x 959 km, 66.7° (Epoch: 25 February)

Date Brightness Start Highest point End Pass type
(mag) Time Alt. Az. Time Alt. Az. Time Alt. Az.
27 Feb 7.8 01:23:49 10° N 01:26:21 14° NE 01:28:12 12° ENE visible
27 Feb 6.9 03:05:22 10° NNW 03:08:43 40° N 03:08:43 40° N visible
28 Feb 6.5 02:31:21 10° NNW 02:35:56 44° NE 02:35:56 44° NE visible
28 Feb 8.4 04:14:43 10° NW 04:16:27 19° WNW 04:16:27 19° WNW visible
29 Feb 6.8 01:57:24 10° NNW 02:01:59 33° NE 02:03:15 29° ENE visible
29 Feb 7.4 03:40:19 10° NW 03:43:46 35° WNW 03:43:46 35° WNW visible
01 Mar 7.2 01:23:30 10° N 01:27:40 25° NE 01:30:40 16° E visible
01 Mar 6.3 03:06:03 10° NW 03:11:12 63° WSW 03:11:12 63° WSW visible
02 Mar 7.5 00:49:42 10° N 00:53:19 19° NE 00:57:08 10° E visible
02 Mar 6.0 02:31:52 10° NNW 02:37:05 89° WSW 02:38:46 47° SSE visible
02 Mar 8.7 04:17:01 10° WNW 04:19:19 14° WSW 04:19:19 14° WSW visible
03 Mar 6.0 01:57:46 10° NNW 02:02:56 66° NE 02:06:29 23° SE visible
03 Mar 8.2 03:41:52 10° WNW 03:45:45 20° WSW 03:47:03 19° SW visible
04 Mar 6.4 01:23:44 10° NNW 01:28:44 48° NE 01:34:14 10° SE visible
04 Mar 7.8 03:07:12 10° NW 03:11:46 29° WSW 03:14:58 18° SSW visible
05 Mar 7.3 02:32:46 10° NW 02:37:44 41° WSW 02:43:08 10° S visible
06 Mar 6.7 01:58:28 10° NW 02:03:40 59° WSW 02:09:23 10° SSE visible
07 Mar 6.2 01:24:17 10° NNW 01:29:33 83° WSW 01:35:23 10° SSE visible
07 Mar 8.9 03:09:43 10° W 03:12:07 13° WSW 03:14:34 10° SW visible
